Weather History for Seretse Khama, Botswana

Change the Weather History Date:

Friday, September 13, 2013

  Actual Average Record
Temperature  
Mean Temperature 76 °F -  
Max Temperature 91 °F 83 °F 95 °F (2007)
Min Temperature 62 °F 55 °F 44 °F (2003)
Cooling Degree Days 12    
Growing Degree Days 26 (Base 50)    
Moisture  
Dew Point 50 °F    
Average Humidity 45    
Maximum Humidity 72    
Minimum Humidity 18    
Precipitation  
Precipitation 0.00 in - - ()
Sea Level Pressure  
Sea Level Pressure 29.98 in    
Wind  
Wind Speed 8 mph ()    
Max Wind Speed 13 mph    
Max Gust Speed -    
Visibility 6.2 miles    
Events Thunderstorm    
Averages and records for this station are not official NWS values.
T = Trace of Precipitation, MM = Missing Value Source: Averaged Metar Reports

Daily Weather History Graph

Daily Weather History Graph

Search for Another Location

Airport:

Trip Planner

Search our weather history database for the weather conditions in past years. The results will help you decide how hot, cold, wet, or windy it might be!

Date:

Astronomy

Sep. 13, 2013 Rise Set
Actual Time 6:15 AM CAT 6:09 PM CAT
Civil Twilight 5:52 AM CAT 6:32 PM CAT
Nautical Twilight 5:26 AM CAT 6:58 PM CAT
Astronomical Twilight 5:00 AM CAT 7:24 PM CAT
Moon 12:10 PM CAT (9/13) 12:57 AM CAT (9/13)
Length of Visible Light 12h 39m
Length of Day
11h 53m
First Quarter, 58% of the Moon is Illuminated
Sep 13
First Quarter
Sep 19
Full
Sep 27
Last Quarter
Oct 5
New
Oct 12
First Quarter

Hourly Weather History & Observations

Time (CAT) Temp. Dew Point Humidity Pressure Visibility Wind Dir Wind Speed Gust Speed Precip Events Conditions
12:00 AM 71.6 °F 51.8 °F 50% 29.98 in - NE 9.2 mph - N/A   Clear
1:00 AM 69.8 °F 51.8 °F 53% 29.98 in - ENE 10.4 mph - N/A   Clear
2:00 AM 68.0 °F 53.6 °F 60% 29.98 in - NE 12.7 mph - N/A   Clear
3:00 AM 68.0 °F 53.6 °F 60% 29.98 in - ENE 10.4 mph - N/A   Clear
4:00 AM 64.4 °F 53.6 °F 68% 29.95 in - SE 8.1 mph - N/A   Clear
5:00 AM 64.4 °F 53.6 °F 68% 29.98 in - NE 8.1 mph - N/A   Clear
6:00 AM 62.6 °F 53.6 °F 72% 30.01 in - SE 5.8 mph - N/A   Clear
7:00 AM 64.4 °F 53.6 °F 68% 30.01 in - ENE 10.4 mph - N/A   Clear
8:00 AM 66.2 °F 53.6 °F 64% 30.04 in - East 9.2 mph - N/A   Clear
9:00 AM 69.8 °F 51.8 °F 53% 30.06 in - NE 8.1 mph - N/A   Clear
10:00 AM 71.6 °F 51.8 °F 50% 30.06 in - NE 9.2 mph - N/A   Clear
11:00 AM 75.2 °F 50.0 °F 41% 30.04 in - NE 8.1 mph - N/A   Clear
12:00 PM 80.6 °F 50.0 °F 34% 30.01 in - North 5.8 mph - N/A   Clear
1:00 PM 84.2 °F 48.2 °F 29% 29.98 in - Variable 3.5 mph - N/A   Clear
2:00 PM 86.0 °F 46.4 °F 25% 29.92 in - Variable 3.5 mph - N/A   Clear
3:00 PM 89.6 °F 44.6 °F 21% 29.89 in - West 5.8 mph - N/A   Clear
4:00 PM 91.4 °F 42.8 °F 18% 29.89 in 6.2 mi West 10.4 mph - N/A   Partly Cloudy
5:00 PM 89.6 °F 41.0 °F 18% 29.89 in 6.2 mi West 9.2 mph - N/A   Scattered Clouds
6:00 PM 86.0 °F 41.0 °F 20% 29.92 in 6.2 mi West 5.8 mph - N/A   Scattered Clouds
7:00 PM 82.4 °F 41.0 °F 23% 29.92 in 6.2 mi SSW 3.5 mph - N/A   Partly Cloudy
8:00 PM 80.6 °F 44.6 °F 28% 29.98 in 6.2 mi North 4.6 mph - N/A   Scattered Clouds
9:00 PM 75.2 °F 55.4 °F 50% 29.98 in 6.2 mi ENE 8.1 mph - N/A Thunderstorm Thunderstorm
10:00 PM 73.4 °F 57.2 °F 57% 30.01 in 6.2 mi SSE 10.4 mph - N/A Thunderstorm Thunderstorm
11:00 PM 73.4 °F 55.4 °F 53% 30.01 in 6.2 mi NE 11.5 mph - N/A Thunderstorm Thunderstorm